"read_dt","SO2 (ppb)","flags","PMT voltage (V)","lamp voltage (V)","lamp intensity (Hz)","internal temp (C)","react chamber temp (C)","sample flow (l/min)","pres (mmHg)","SO2 bkg (ppb)","SO2 coefficient"
2016-08-26 00:00:00,2180E-3,5C000400,-0723,0827,12183,031.1,045.5,0.249,740.0,01.18,0.508
2016-08-26 00:01:00,2012E-3,5C000400,-0723,0826,12341,031.1,045.5,0.249,740.0,01.18,0.508
2016-08-26 00:02:00,2034E-3,5C000400,-0723,0826,12293,031.1,045.5,0.249,740.0,01.18,0.508
2016-08-26 00:03:00,2179E-3,5C000400,-0723,0827,12269,031.1,045.5,0.249,740.0,01.18,0.508
2016-08-26 00:04:00,2152E-3,5C000400,-0723,0826,12278,031.1,045.5,0.249,739.9,01.18,0.508
2016-08-26 00:05:00,2206E-3,5C000400,-0723,0828,12268,031.1,045.5,0.249,739.9,01.18,0.508
2016-08-26 00:06:00,2127E-3,5C000400,-0723,0827,12224,031.1,045.5,0.249,739.9,01.18,0.508
2016-08-26 00:07:00,2264E-3,5C000400,-0723,0827,12052,031.1,045.5,0.249,740.0,01.18,0.508
2016-08-26 00:08:00,2127E-3,5C000400,-0723,0827,12186,031.1,045.5,0.249,740.1,01.18,0.508
2016-08-26 00:09:00,2001E-3,5C000400,-0723,0826,12081,031.1,045.5,0.249,740.1,01.18,0.508
2016-08-26 00:10:00,2250E-3,5C000400,-0723,0826,12184,031.1,045.5,0.249,740.0,01.18,0.508
2016-08-26 00:11:00,2245E-3,5C000400,-0723,0827,12140,031.1,045.5,0.249,740.0,01.18,0.508
2016-08-26 00:12:00,2186E-3,5C000400,-0723,0826,12156,031.1,045.5,0.249,740.1,01.18,0.508
2016-08-26 00:13:00,2201E-3,5C000400,-0723,0827,12311,031.1,045.6,0.249,740.0,01.18,0.508
2016-08-26 00:14:00,2207E-3,5C000400,-0723,0826,12121,031.1,045.6,0.249,740.0,01.18,0.508
2016-08-26 00:15:00,2120E-3,5C000400,-0723,0826,12247,031.1,045.6,0.249,740.1,01.18,0.508
2016-08-26 00:16:00,2094E-3,5C000400,-0723,0827,12247,031.0,045.5,0.249,740.0,01.18,0.508
2016-08-26 00:17:00,2216E-3,5C000400,-0723,0826,12175,031.0,045.5,0.249,740.0,01.18,0.508
2016-08-26 00:18:00,2082E-3,5C000400,-0723,0828,12227,031.0,045.5,0.249,740.1,01.18,0.508
2016-08-26 00:19:00,2210E-3,5C000400,-0723,0827,12312,031.0,045.5,0.249,740.1,01.18,0.508
2016-08-26 00:20:00,2135E-3,5C000400,-0723,0827,12268,031.0,045.5,0.249,740.0,01.18,0.508
2016-08-26 00:21:00,2130E-3,5C000400,-0723,0827,12186,031.0,045.5,0.249,740.1,01.18,0.508
2016-08-26 00:22:00,2090E-3,5C000400,-0723,0828,12233,031.0,045.5,0.249,740.1,01.18,0.508
2016-08-26 00:23:00,2042E-3,5C000400,-0723,0828,12268,031.0,045.5,0.249,740.1,01.18,0.508
2016-08-26 00:24:00,2277E-3,5C000400,-0723,0827,12158,030.9,045.5,0.249,740.2,01.18,0.508
2016-08-26 00:25:00,2208E-3,5C000400,-0723,0827,12301,031.0,045.5,0.249,740.1,01.18,0.508
2016-08-26 00:26:00,2019E-3,5C000400,-0723,0827,12152,031.0,045.5,0.249,740.1,01.18,0.508
2016-08-26 00:27:00,2008E-3,5C000400,-0723,0827,12224,031.0,045.5,0.249,740.1,01.18,0.508
2016-08-26 00:28:00,2116E-3,5C000400,-0723,0826,12232,031.0,045.5,0.249,740.2,01.18,0.508
2016-08-26 00:29:00,2058E-3,5C000400,-0723,0826,12200,030.9,045.5,0.249,740.2,01.18,0.508
2016-08-26 00:30:00,2126E-3,5C000400,-0723,0826,12096,030.9,045.5,0.249,740.2,01.18,0.508
2016-08-26 00:31:00,2140E-3,5C000400,-0723,0827,12221,030.9,045.5,0.249,740.2,01.18,0.508
2016-08-26 00:32:00,2213E-3,5C000400,-0723,0826,12282,031.0,045.5,0.249,740.2,01.18,0.508
2016-08-26 00:33:00,2170E-3,5C000400,-0723,0827,12169,031.0,045.5,0.249,740.3,01.18,0.508
2016-08-26 00:34:00,2133E-3,5C000400,-0723,0826,12380,031.0,045.5,0.249,740.2,01.18,0.508
2016-08-26 00:35:00,2196E-3,5C000400,-0723,0827,12324,030.9,045.5,0.249,740.2,01.18,0.508
2016-08-26 00:36:00,2162E-3,5C000400,-0723,0827,12316,030.9,045.5,0.249,740.2,01.18,0.508
2016-08-26 00:37:00,2123E-3,5C000400,-0723,0827,12258,030.9,045.5,0.249,740.2,01.18,0.508
2016-08-26 00:38:00,2184E-3,5C000400,-0723,0827,12248,031.0,045.5,0.249,740.2,01.18,0.508
2016-08-26 00:39:00,2158E-3,5C000400,-0723,0827,12170,030.9,045.5,0.249,740.1,01.18,0.508
2016-08-26 00:40:00,2201E-3,5C000400,-0723,0826,12288,030.9,045.5,0.249,740.2,01.18,0.508
2016-08-26 00:41:00,2253E-3,5C000400,-0723,0826,12117,031.0,045.5,0.249,740.2,01.18,0.508
2016-08-26 00:42:00,2159E-3,5C000400,-0723,0827,12224,031.0,045.5,0.249,740.2,01.18,0.508
2016-08-26 00:43:00,2227E-3,5C000400,-0723,0826,12183,030.9,045.5,0.249,740.1,01.18,0.508
2016-08-26 00:44:00,2077E-3,5C000400,-0723,0826,12066,030.9,045.5,0.249,740.2,01.18,0.508
2016-08-26 00:45:00,2274E-3,5C000400,-0723,0827,12214,030.9,045.5,0.249,740.1,01.18,0.508
2016-08-26 00:46:00,2261E-3,5C000400,-0723,0827,12210,030.9,045.5,0.249,740.1,01.18,0.508
2016-08-26 00:47:00,2167E-3,5C000400,-0723,0827,12161,030.9,045.5,0.249,740.2,01.18,0.508
2016-08-26 00:48:00,2065E-3,5C000400,-0723,0827,12256,030.9,045.5,0.249,740.2,01.18,0.508
2016-08-26 00:49:00,2180E-3,5C000400,-0723,0827,12263,030.9,045.5,0.249,740.2,01.18,0.508
2016-08-26 00:50:00,2056E-3,5C000400,-0723,0827,12202,031.0,045.5,0.249,740.2,01.18,0.508
2016-08-26 00:51:00,2165E-3,5C000400,-0723,0826,12275,030.9,045.5,0.249,740.0,01.18,0.508
2016-08-26 00:52:00,2144E-3,5C000400,-0723,0826,12287,030.9,045.5,0.249,740.2,01.18,0.508
2016-08-26 00:53:00,2227E-3,5C000400,-0723,0827,12215,030.9,045.5,0.249,740.1,01.18,0.508
2016-08-26 00:54:00,2123E-3,5C000400,-0723,0828,12298,030.9,045.5,0.249,740.1,01.18,0.508
2016-08-26 00:55:00,2007E-3,5C000400,-0723,0826,12177,031.0,045.5,0.249,740.1,01.18,0.508
2016-08-26 00:56:00,2084E-3,5C000400,-0723,0827,12316,030.9,045.5,0.249,740.1,01.18,0.508
2016-08-26 00:57:00,2315E-3,5C000400,-0723,0827,12273,030.9,045.5,0.249,740.1,01.18,0.508
2016-08-26 00:58:00,2112E-3,5C000400,-0723,0826,12131,030.9,045.5,0.249,740.1,01.18,0.508
2016-08-26 00:59:00,2003E-3,5C000400,-0723,0827,12381,030.9,045.5,0.249,740.2,01.18,0.508
2016-08-26 01:00:00,2133E-3,5C000400,-0723,0827,11987,030.9,045.5,0.249,740.2,01.18,0.508
2016-08-26 01:01:00,2133E-3,5C000400,-0723,0827,12171,030.9,045.5,0.249,740.3,01.18,0.508
2016-08-26 01:02:00,2230E-3,5C000400,-0723,0827,12215,030.9,045.5,0.249,740.5,01.18,0.508
2016-08-26 01:03:00,2129E-3,5C000400,-0723,0827,12265,031.0,045.5,0.249,740.3,01.18,0.508
2016-08-26 01:04:00,2343E-3,5C000400,-0723,0827,12158,031.0,045.5,0.249,740.2,01.18,0.508
2016-08-26 01:05:00,2144E-3,5C000400,-0723,0826,12162,030.9,045.5,0.249,740.2,01.18,0.508
2016-08-26 01:06:00,2279E-3,5C000400,-0723,0826,12144,030.9,045.5,0.249,740.4,01.18,0.508
2016-08-26 01:07:00,2195E-3,5C000400,-0723,0827,12408,030.9,045.5,0.249,740.4,01.18,0.508
2016-08-26 01:08:00,2138E-3,5C000400,-0723,0826,12161,030.9,045.5,0.249,740.5,01.18,0.508
2016-08-26 01:09:00,2029E-3,5C000400,-0723,0827,12322,030.9,045.5,0.249,740.4,01.18,0.508
2016-08-26 01:10:00,2135E-3,5C000400,-0723,0826,12276,030.9,045.5,0.249,740.5,01.18,0.508
2016-08-26 01:11:00,2179E-3,5C000400,-0723,0826,12240,030.9,045.5,0.249,740.5,01.18,0.508
2016-08-26 01:12:00,2192E-3,5C000400,-0723,0826,12116,031.0,045.5,0.249,740.5,01.18,0.508
2016-08-26 01:13:00,2288E-3,5C000400,-0723,0826,12250,030.9,045.5,0.249,740.5,01.18,0.508
2016-08-26 01:14:00,2113E-3,5C000400,-0723,0826,12290,030.9,045.5,0.249,740.5,01.18,0.508
2016-08-26 01:15:00,2154E-3,5C000400,-0723,0827,12201,030.9,045.5,0.249,740.6,01.18,0.508
2016-08-26 01:16:00,2128E-3,5C000400,-0723,0827,12147,030.9,045.5,0.249,740.5,01.18,0.508
2016-08-26 01:17:00,2047E-3,5C000400,-0723,0827,12096,030.9,045.5,0.249,740.5,01.18,0.508
2016-08-26 01:18:00,2203E-3,5C000400,-0723,0826,12320,030.9,045.5,0.249,740.6,01.18,0.508
2016-08-26 01:19:00,2015E-3,5C000400,-0723,0826,12271,030.9,045.5,0.249,740.5,01.18,0.508
2016-08-26 01:20:00,2047E-3,5C000400,-0723,0827,12088,030.9,045.5,0.249,740.5,01.18,0.508
2016-08-26 01:21:00,2263E-3,5C000400,-0723,0826,12082,030.9,045.5,0.249,740.5,01.18,0.508
2016-08-26 01:22:00,2237E-3,5C000400,-0723,0827,12165,030.9,045.5,0.249,740.6,01.18,0.508
2016-08-26 01:23:00,2218E-3,5C000400,-0723,0827,12239,030.9,045.5,0.249,740.6,01.18,0.508
2016-08-26 01:24:00,2162E-3,5C000400,-0723,0827,12353,030.9,045.5,0.249,740.6,01.18,0.508
2016-08-26 01:25:00,2156E-3,5C000400,-0723,0827,12219,030.9,045.5,0.249,740.6,01.18,0.508
2016-08-26 01:26:00,2007E-3,5C000400,-0723,0826,12261,030.9,045.5,0.249,740.6,01.18,0.508
2016-08-26 01:27:00,2080E-3,5C000400,-0723,0826,12250,030.9,045.5,0.249,740.6,01.18,0.508
2016-08-26 01:28:00,2128E-3,5C000400,-0723,0827,12145,030.9,045.5,0.250,740.6,01.18,0.508
2016-08-26 01:29:00,2152E-3,5C000400,-0723,0827,12181,030.9,045.5,0.249,740.5,01.18,0.508
2016-08-26 01:30:00,2130E-3,5C000400,-0723,0827,12125,030.9,045.5,0.249,740.6,01.18,0.508
2016-08-26 01:31:00,2257E-3,5C000400,-0723,0827,12213,030.9,045.5,0.249,740.6,01.18,0.508
2016-08-26 01:32:00,2141E-3,5C000400,-0723,0827,12157,030.9,045.5,0.249,740.6,01.18,0.508
2016-08-26 01:33:00,2151E-3,5C000400,-0723,0827,12249,030.9,045.5,0.249,740.6,01.18,0.508
2016-08-26 01:34:00,2197E-3,5C000400,-0723,0826,12271,030.9,045.5,0.249,740.6,01.18,0.508
2016-08-26 01:35:00,2139E-3,5C000400,-0723,0826,12354,030.9,045.5,0.250,740.6,01.18,0.508
2016-08-26 01:36:00,2167E-3,5C000400,-0723,0827,12185,030.9,045.5,0.250,740.6,01.18,0.508
2016-08-26 01:37:00,2154E-3,5C000400,-0723,0827,12147,030.9,045.5,0.249,740.6,01.18,0.508
2016-08-26 01:38:00,2110E-3,5C000400,-0723,0826,12242,030.9,045.5,0.249,740.6,01.18,0.508
2016-08-26 01:39:00,2154E-3,5C000400,-0723,0827,12214,030.9,045.5,0.250,740.6,01.18,0.508
2016-08-26 01:40:00,2104E-3,5C000400,-0723,0826,12228,030.9,045.5,0.249,740.6,01.18,0.508
2016-08-26 01:41:00,2116E-3,5C000400,-0723,0827,12262,030.9,045.5,0.249,740.6,01.18,0.508
2016-08-26 01:42:00,2144E-3,5C000400,-0723,0826,12181,030.9,045.5,0.249,740.6,01.18,0.508
2016-08-26 01:43:00,2070E-3,5C000400,-0723,0826,12202,030.9,045.5,0.249,740.6,01.18,0.508
2016-08-26 01:44:00,2157E-3,5C000400,-0723,0826,12334,030.9,045.5,0.250,740.6,01.18,0.508
2016-08-26 01:45:00,2238E-3,5C000400,-0723,0828,12123,030.9,045.5,0.250,740.6,01.18,0.508
2016-08-26 01:46:00,2155E-3,5C000400,-0723,0826,12275,030.9,045.5,0.249,740.6,01.18,0.508
2016-08-26 01:47:00,2065E-3,5C000400,-0723,0827,12222,030.9,045.5,0.249,740.6,01.18,0.508
2016-08-26 01:48:00,2157E-3,5C000400,-0723,0828,12123,030.9,045.5,0.249,740.6,01.18,0.508
2016-08-26 01:49:00,2273E-3,5C000400,-0723,0827,12363,030.9,045.5,0.249,740.6,01.18,0.508
2016-08-26 01:50:00,2016E-3,5C000400,-0723,0827,12277,030.9,045.5,0.249,740.6,01.18,0.508
2016-08-26 01:51:00,2150E-3,5C000400,-0723,0826,12192,030.9,045.5,0.249,740.6,01.18,0.508
2016-08-26 01:52:00,2042E-3,5C000400,-0723,0826,12187,030.9,045.5,0.249,740.6,01.18,0.508
2016-08-26 01:53:00,2203E-3,5C000400,-0723,0827,12207,030.9,045.5,0.249,740.6,01.18,0.508
2016-08-26 01:54:00,2239E-3,5C000400,-0723,0827,12157,030.9,045.5,0.249,740.6,01.18,0.508
2016-08-26 01:55:00,2085E-3,5C000400,-0723,0827,12365,030.9,045.5,0.249,740.6,01.18,0.508
2016-08-26 01:56:00,2042E-3,5C000400,-0723,0826,12271,030.9,045.5,0.249,740.6,01.18,0.508
2016-08-26 01:57:00,2198E-3,5C000400,-0723,0827,12202,030.9,045.5,0.249,740.6,01.18,0.508
2016-08-26 01:58:00,2161E-3,5C000400,-0723,0827,12290,030.9,045.5,0.249,740.6,01.18,0.508
2016-08-26 01:59:00,1990E-3,5C000400,-0723,0827,12154,030.9,045.5,0.249,740.6,01.18,0.508
2016-08-26 02:00:00,2222E-3,5C000400,-0723,0826,12213,030.9,045.5,0.249,740.6,01.18,0.508
2016-08-26 02:01:00,2126E-3,5C000400,-0723,0827,12121,030.9,045.5,0.249,740.6,01.18,0.508
2016-08-26 02:02:00,2070E-3,5C000400,-0723,0827,12417,030.9,045.5,0.249,740.6,01.18,0.508
2016-08-26 02:03:00,2157E-3,5C000400,-0723,0826,12270,030.9,045.5,0.249,740.6,01.18,0.508
2016-08-26 02:04:00,2172E-3,5C000400,-0723,0827,12180,030.9,045.5,0.249,740.8,01.18,0.508
2016-08-26 02:05:00,2150E-3,5C000400,-0723,0827,12110,030.9,045.5,0.249,740.8,01.18,0.508
2016-08-26 02:06:00,2094E-3,5C000400,-0723,0826,12357,030.9,045.5,0.249,740.6,01.18,0.508
2016-08-26 02:07:00,2091E-3,5C000400,-0723,0827,12241,030.9,045.5,0.249,740.6,01.18,0.508
2016-08-26 02:08:00,2112E-3,5C000400,-0723,0827,12110,030.9,045.5,0.249,740.7,01.18,0.508
2016-08-26 02:09:00,2034E-3,5C000400,-0723,0826,12128,030.9,045.5,0.249,740.7,01.18,0.508
2016-08-26 02:10:00,2144E-3,5C000400,-0723,0827,12213,030.9,045.5,0.249,740.8,01.18,0.508
2016-08-26 02:11:00,2192E-3,5C000400,-0723,0827,12093,030.9,045.5,0.249,740.9,01.18,0.508
2016-08-26 02:12:00,2111E-3,5C000400,-0723,0828,12244,030.9,045.5,0.249,740.7,01.18,0.508
2016-08-26 02:13:00,2103E-3,5C000400,-0723,0827,12232,030.9,045.5,0.249,740.6,01.18,0.508
2016-08-26 02:14:00,2117E-3,5C000400,-0723,0827,12305,030.9,045.5,0.249,740.7,01.18,0.508
2016-08-26 02:15:00,2155E-3,5C000400,-0723,0827,12219,030.9,045.5,0.249,740.9,01.18,0.508
2016-08-26 02:16:00,2303E-3,5C000400,-0723,0827,12482,030.8,045.5,0.249,740.9,01.18,0.508
2016-08-26 02:17:00,2099E-3,5C000400,-0723,0827,12343,030.9,045.5,0.249,741.0,01.18,0.508
2016-08-26 02:18:00,2017E-3,5C000400,-0723,0827,12360,030.9,045.5,0.249,741.0,01.18,0.508
2016-08-26 02:19:00,2151E-3,5C000400,-0723,0826,12246,030.9,045.5,0.249,740.9,01.18,0.508
2016-08-26 02:20:00,2185E-3,5C000400,-0723,0827,12215,030.8,045.5,0.249,741.0,01.18,0.508
2016-08-26 02:21:00,2262E-3,5C000400,-0723,0827,12155,030.8,045.5,0.249,740.9,01.18,0.508
2016-08-26 02:22:00,1985E-3,5C000400,-0723,0827,12288,030.9,045.5,0.249,741.0,01.18,0.508
2016-08-26 02:23:00,2165E-3,5C000400,-0723,0827,12286,030.8,045.5,0.249,741.0,01.18,0.508
2016-08-26 02:24:00,2168E-3,5C000400,-0723,0827,12244,030.8,045.5,0.249,741.0,01.18,0.508
2016-08-26 02:25:00,2217E-3,5C000400,-0723,0826,12005,030.8,045.5,0.249,741.1,01.18,0.508
2016-08-26 02:26:00,2077E-3,5C000400,-0723,0827,12162,030.8,045.5,0.249,741.0,01.18,0.508
2016-08-26 02:27:00,2276E-3,5C000400,-0723,0828,12224,030.8,045.5,0.249,741.0,01.18,0.508
2016-08-26 02:28:00,2082E-3,5C000400,-0723,0827,12187,030.8,045.5,0.250,741.0,01.18,0.508
2016-08-26 02:29:00,2246E-3,5C000400,-0723,0827,11982,030.8,045.5,0.250,741.0,01.18,0.508
2016-08-26 02:30:00,2194E-3,5C000400,-0723,0827,12196,030.8,045.5,0.250,741.1,01.18,0.508
2016-08-26 02:31:00,2205E-3,5C000400,-0723,0827,12222,030.9,045.5,0.250,741.0,01.18,0.508
2016-08-26 02:32:00,2111E-3,5C000400,-0723,0827,12253,030.8,045.5,0.250,741.0,01.18,0.508
2016-08-26 02:33:00,2290E-3,5C000400,-0723,0827,12171,030.8,045.5,0.250,741.0,01.18,0.508
2016-08-26 02:34:00,2153E-3,5C000400,-0723,0827,12139,030.8,045.5,0.250,741.0,01.18,0.508
2016-08-26 02:35:00,2096E-3,5C000400,-0723,0827,12143,030.8,045.5,0.250,741.1,01.18,0.508
2016-08-26 02:36:00,2021E-3,5C000400,-0723,0826,12310,030.9,045.5,0.250,741.1,01.18,0.508
2016-08-26 02:37:00,2063E-3,5C000400,-0723,0827,12305,030.8,045.5,0.250,741.1,01.18,0.508
2016-08-26 02:38:00,2185E-3,5C000400,-0723,0827,12131,030.9,045.5,0.250,741.1,01.18,0.508
2016-08-26 02:39:00,2114E-3,5C000400,-0723,0828,12300,030.8,045.5,0.250,741.0,01.18,0.508
2016-08-26 02:40:00,2161E-3,5C000400,-0723,0826,12292,030.8,045.5,0.250,741.0,01.18,0.508
2016-08-26 02:41:00,2134E-3,5C000400,-0723,0827,12238,030.8,045.5,0.250,741.1,01.18,0.508
2016-08-26 02:42:00,2014E-3,5C000400,-0723,0827,12291,030.8,045.6,0.250,741.1,01.18,0.508
2016-08-26 02:43:00,2073E-3,5C000400,-0723,0826,12197,030.9,045.6,0.250,741.1,01.18,0.508
2016-08-26 02:44:00,2095E-3,5C000400,-0723,0827,12130,030.8,045.5,0.250,741.0,01.18,0.508
2016-08-26 02:45:00,2243E-3,5C000400,-0723,0827,12333,030.8,045.5,0.250,741.0,01.18,0.508
2016-08-26 02:46:00,2172E-3,5C000400,-0723,0827,12166,030.8,045.5,0.250,740.9,01.18,0.508
2016-08-26 02:47:00,2107E-3,5C000400,-0723,0826,12103,030.8,045.5,0.250,741.1,01.18,0.508
2016-08-26 02:48:00,2251E-3,5C000400,-0723,0827,12234,030.8,045.5,0.250,741.1,01.18,0.508
2016-08-26 02:49:00,2241E-3,5C000400,-0723,0826,12146,030.8,045.5,0.250,741.1,01.18,0.508
2016-08-26 02:50:00,2151E-3,5C000400,-0723,0827,12246,030.8,045.5,0.250,741.0,01.18,0.508
2016-08-26 02:51:00,2095E-3,5C000400,-0723,0826,12209,030.8,045.5,0.250,741.1,01.18,0.508
2016-08-26 02:52:00,2117E-3,5C000400,-0723,0826,12259,030.8,045.5,0.250,741.1,01.18,0.508
2016-08-26 02:53:00,2183E-3,5C000400,-0723,0827,12227,030.8,045.5,0.250,741.1,01.18,0.508
2016-08-26 02:54:00,2067E-3,5C000400,-0723,0827,12199,030.8,045.5,0.250,741.1,01.18,0.508
2016-08-26 02:55:00,2253E-3,5C000400,-0723,0828,12243,030.8,045.5,0.250,741.0,01.18,0.508
2016-08-26 02:56:00,2111E-3,5C000400,-0723,0828,12126,030.8,045.5,0.250,741.0,01.18,0.508
2016-08-26 02:57:00,2058E-3,5C000400,-0723,0826,12181,030.8,045.5,0.250,741.1,01.18,0.508
2016-08-26 02:58:00,2043E-3,5C000400,-0723,0827,12121,030.8,045.5,0.249,741.1,01.18,0.508
2016-08-26 02:59:00,2073E-3,5C000400,-0723,0827,12347,030.8,045.5,0.249,741.1,01.18,0.508
2016-08-26 03:00:00,2113E-3,5C000400,-0723,0827,12223,030.8,045.5,0.249,741.2,01.18,0.508
2016-08-26 03:01:00,2213E-3,5C000400,-0723,0827,12111,030.8,045.5,0.249,741.1,01.18,0.508
2016-08-26 03:02:00,2060E-3,5C000400,-0723,0827,12174,030.8,045.5,0.249,741.1,01.18,0.508
2016-08-26 03:03:00,2139E-3,5C000400,-0723,0827,12320,030.8,045.5,0.249,741.2,01.18,0.508
2016-08-26 03:04:00,2100E-3,5C000400,-0723,0827,12276,030.8,045.6,0.249,741.2,01.18,0.508
2016-08-26 03:05:00,2229E-3,5C000400,-0723,0828,12306,030.8,045.5,0.249,741.2,01.18,0.508
2016-08-26 03:06:00,2117E-3,5C000400,-0723,0827,12191,030.8,045.5,0.249,741.2,01.18,0.508
2016-08-26 03:07:00,2166E-3,5C000400,-0723,0827,12246,030.8,045.5,0.250,741.2,01.18,0.508
2016-08-26 03:08:00,2140E-3,5C000400,-0723,0826,12171,030.8,045.5,0.250,741.2,01.18,0.508
2016-08-26 03:09:00,2183E-3,5C000400,-0723,0827,12256,030.8,045.5,0.250,741.2,01.18,0.508
2016-08-26 03:10:00,2187E-3,5C000400,-0723,0826,12360,030.8,045.5,0.249,741.2,01.18,0.508
2016-08-26 03:11:00,2079E-3,5C000400,-0723,0827,12149,030.8,045.5,0.250,741.2,01.18,0.508
2016-08-26 03:12:00,2022E-3,5C000400,-0723,0826,12184,030.8,045.5,0.250,741.2,01.18,0.508
2016-08-26 03:13:00,2089E-3,5C000400,-0723,0827,12194,030.8,045.5,0.250,741.2,01.18,0.508
2016-08-26 03:14:00,2210E-3,5C000400,-0723,0827,12139,030.8,045.5,0.250,741.3,01.18,0.508
2016-08-26 03:15:00,2164E-3,5C000400,-0723,0827,12300,030.8,045.5,0.250,741.2,01.18,0.508
2016-08-26 03:16:00,2277E-3,5C000400,-0723,0827,12269,030.8,045.5,0.250,741.2,01.18,0.508
2016-08-26 03:17:00,2177E-3,5C000400,-0723,0828,12174,030.8,045.5,0.250,741.3,01.18,0.508
2016-08-26 03:18:00,2296E-3,5C000400,-0723,0827,12278,030.8,045.5,0.250,741.3,01.18,0.508
2016-08-26 03:19:00,2093E-3,5C000400,-0723,0827,12181,030.8,045.5,0.250,741.3,01.18,0.508
2016-08-26 03:20:00,2077E-3,5C000400,-0723,0827,12146,030.8,045.5,0.250,741.4,01.18,0.508
2016-08-26 03:21:00,2241E-3,5C000400,-0723,0828,12039,030.8,045.5,0.250,741.4,01.18,0.508
2016-08-26 03:22:00,2103E-3,5C000400,-0723,0828,12235,030.8,045.5,0.250,741.3,01.18,0.508
2016-08-26 03:23:00,2104E-3,5C000400,-0723,0827,12115,030.7,045.5,0.250,741.3,01.18,0.508
2016-08-26 03:24:00,2305E-3,5C000400,-0723,0827,12121,030.8,045.5,0.250,741.3,01.18,0.508
2016-08-26 03:25:00,2248E-3,5C000400,-0723,0827,12091,030.8,045.5,0.250,741.3,01.18,0.508
2016-08-26 03:26:00,2213E-3,5C000400,-0723,0827,12103,030.8,045.5,0.250,741.3,01.18,0.508
2016-08-26 03:27:00,2184E-3,5C000400,-0723,0827,12247,030.8,045.5,0.250,741.3,01.18,0.508
2016-08-26 03:28:00,2070E-3,5C000400,-0723,0827,12215,030.8,045.5,0.250,741.4,01.18,0.508
2016-08-26 03:29:00,2261E-3,5C000400,-0723,0827,12189,030.8,045.5,0.250,741.4,01.18,0.508
2016-08-26 03:30:00,2120E-3,5C000400,-0723,0827,12145,030.8,045.5,0.250,741.4,01.18,0.508
2016-08-26 03:31:00,2109E-3,5C000400,-0723,0826,12236,030.8,045.5,0.250,741.3,01.18,0.508
2016-08-26 03:32:00,2252E-3,5C000400,-0723,0826,12264,030.8,045.5,0.250,741.4,01.18,0.508
2016-08-26 03:33:00,2139E-3,5C000400,-0723,0827,12219,030.8,045.5,0.250,741.4,01.18,0.508
2016-08-26 03:34:00,2175E-3,5C000400,-0723,0827,12220,030.8,045.5,0.250,741.5,01.18,0.508
2016-08-26 03:35:00,2245E-3,5C000400,-0723,0827,12193,030.8,045.5,0.250,741.4,01.18,0.508
2016-08-26 03:36:00,2184E-3,5C000400,-0723,0827,12114,030.8,045.5,0.250,741.4,01.18,0.508
2016-08-26 03:37:00,2296E-3,5C000400,-0723,0827,12448,030.8,045.5,0.250,741.5,01.18,0.508
2016-08-26 03:38:00,2123E-3,5C000400,-0723,0827,12302,030.8,045.5,0.250,741.4,01.18,0.508
2016-08-26 03:39:00,2178E-3,5C000400,-0723,0826,12193,030.7,045.5,0.250,741.5,01.18,0.508
2016-08-26 03:40:00,2047E-3,5C000400,-0723,0827,12156,030.8,045.5,0.250,741.5,01.18,0.508
2016-08-26 03:41:00,2124E-3,5C000400,-0723,0828,12322,030.8,045.5,0.250,741.4,01.18,0.508
2016-08-26 03:42:00,2027E-3,5C000400,-0723,0827,12253,030.7,045.5,0.250,741.5,01.18,0.508
2016-08-26 03:43:00,2288E-3,5C000400,-0723,0827,12211,030.7,045.5,0.250,741.5,01.18,0.508
2016-08-26 03:44:00,2146E-3,5C000400,-0723,0826,12183,030.8,045.5,0.250,741.4,01.18,0.508
2016-08-26 03:45:00,2140E-3,5C000400,-0723,0827,12245,030.7,045.5,0.250,741.5,01.18,0.508
2016-08-26 03:46:00,2151E-3,5C000400,-0723,0827,12214,030.7,045.5,0.250,741.5,01.18,0.508
2016-08-26 03:47:00,2137E-3,5C000400,-0723,0826,12226,030.7,045.5,0.250,741.5,01.18,0.508
2016-08-26 03:48:00,2147E-3,5C000400,-0723,0827,12203,030.7,045.5,0.250,741.6,01.18,0.508
2016-08-26 03:49:00,2041E-3,5C000400,-0723,0827,12257,030.7,045.5,0.250,741.6,01.18,0.508
2016-08-26 03:50:00,1986E-3,5C000400,-0723,0827,12165,030.7,045.5,0.250,741.6,01.18,0.508
2016-08-26 03:51:00,2147E-3,5C000400,-0723,0827,12152,030.7,045.5,0.250,741.6,01.18,0.508
2016-08-26 03:52:00,2180E-3,5C000400,-0723,0827,12166,030.7,045.5,0.250,741.7,01.18,0.508
2016-08-26 03:53:00,2075E-3,5C000400,-0723,0827,12247,030.8,045.5,0.250,741.6,01.18,0.508
2016-08-26 03:54:00,2156E-3,5C000400,-0723,0827,12206,030.7,045.5,0.249,741.7,01.18,0.508
2016-08-26 03:55:00,2242E-3,5C000400,-0723,0827,12347,030.8,045.5,0.249,741.6,01.18,0.508
2016-08-26 03:56:00,2001E-3,5C000400,-0723,0827,12284,030.7,045.5,0.249,741.7,01.18,0.508
2016-08-26 03:57:00,2214E-3,5C000400,-0723,0827,12148,030.7,045.5,0.249,741.7,01.18,0.508
2016-08-26 03:58:00,2173E-3,5C000400,-0723,0827,12112,030.7,045.5,0.249,741.7,01.18,0.508
2016-08-26 03:59:00,2200E-3,5C000400,-0723,0826,12131,030.7,045.5,0.249,741.8,01.18,0.508
2016-08-26 04:00:00,1990E-3,5C000400,-0723,0827,12225,030.7,045.5,0.249,741.8,01.18,0.508
2016-08-26 04:01:00,2152E-3,5C000400,-0723,0827,12267,030.8,045.5,0.249,741.8,01.18,0.508
2016-08-26 04:02:00,2147E-3,5C000400,-0723,0827,12136,030.7,045.5,0.249,741.8,01.18,0.508
2016-08-26 04:03:00,2160E-3,5C000400,-0723,0827,12291,030.7,045.5,0.250,741.8,01.18,0.508
2016-08-26 04:04:00,2183E-3,5C000400,-0723,0826,12297,030.7,045.5,0.250,741.8,01.18,0.508
2016-08-26 04:05:00,2182E-3,5C000400,-0723,0828,12279,030.7,045.5,0.250,741.8,01.18,0.508
2016-08-26 04:06:00,2062E-3,5C000400,-0723,0827,12141,030.7,045.5,0.250,741.8,01.18,0.508
2016-08-26 04:07:00,2140E-3,5C000400,-0723,0827,12226,030.7,045.5,0.250,741.8,01.18,0.508
2016-08-26 04:08:00,2130E-3,5C000400,-0723,0827,12282,030.7,045.5,0.250,741.8,01.18,0.508
2016-08-26 04:09:00,2206E-3,5C000400,-0723,0826,12187,030.7,045.5,0.250,741.8,01.18,0.508
2016-08-26 04:10:00,2135E-3,5C000400,-0723,0826,12262,030.8,045.5,0.250,741.8,01.18,0.508
2016-08-26 04:11:00,2099E-3,5C000400,-0723,0827,12255,030.7,045.5,0.250,741.8,01.18,0.508
2016-08-26 04:12:00,2110E-3,5C000400,-0723,0827,12132,030.7,045.5,0.250,741.8,01.18,0.508
2016-08-26 04:13:00,2007E-3,5C000400,-0723,0825,12161,030.7,045.5,0.250,741.8,01.18,0.508
2016-08-26 04:14:00,2241E-3,5C000400,-0723,0826,12206,030.7,045.5,0.250,741.9,01.18,0.508
2016-08-26 04:15:00,2117E-3,5C000400,-0723,0827,12319,030.7,045.5,0.250,741.9,01.18,0.508
2016-08-26 04:16:00,2187E-3,5C000400,-0723,0827,12238,030.7,045.5,0.250,741.9,01.18,0.508
2016-08-26 04:17:00,2166E-3,5C000400,-0723,0827,12223,030.7,045.5,0.250,742.0,01.18,0.508
2016-08-26 04:18:00,2243E-3,5C000400,-0723,0827,12213,030.7,045.5,0.250,741.9,01.18,0.508
2016-08-26 04:19:00,2157E-3,5C000400,-0723,0826,12260,030.7,045.5,0.250,741.9,01.18,0.508
2016-08-26 04:20:00,2135E-3,5C000400,-0723,0826,12170,030.7,045.5,0.250,742.0,01.18,0.508